Regional Weather Roundup
Issued by NWS

Home | Current Version | Previous Version | Text Only | Print | Product List | Glossary On
Versions: 1 2 3 4 5 6 7 8 9 10 11 12 13 14 15 16 17 18 19 20 21 22 23 24 25 26 27 28 29 30 31 32 33 34 35 36 37 38 39 40 41 42 43 44 45 46 47 48 49 50
000
ASUS43 KLSX 210859
RWRMO

WEATHER SUMMARY FOR MISSOURI
NATIONAL WEATHER SERVICE SPRINGFIELD MO
400 AM CDT SUN SEP 21 2014

NOTE: "FAIR" INDICATES FEW OR NO CLOUDS BELOW 12,000 FEET WITH NO
       SIGNIFICANT WEATHER AND/OR OBSTRUCTIONS TO VISIBILITY.
       CURRENT SKY AND/OR WEATHER CONDITIONS ARE NOT AVAILABLE FOR
       CHILLICOTHE AND FARMINGTON.

MOZ001>031-035>038-043-044-053-054-211000-
...NORTHERN AND WESTERN MISSOURI...

CITY           SKY/WX    TMP DP  RH WIND       PRES   REMARKS
KANSAS CTY INT CLEAR     61  53  75 N6        30.08R
KANSAS C DTWN  CLEAR     66  54  65 NE6       30.07R
LEE`S SUMMIT   CLEAR     64  49  57 NE8       30.09R
ST JOSEPH      CLEAR     56  51  84 NW5       30.08R
KIRKSVILLE     CLEAR     58  51  78 NW6       30.02R

$$
MOZ066>068-077>081-088>096-101>105-211000-
...SOUTHWEST MISSOURI...

CITY           SKY/WX    TMP DP  RH WIND       PRES   REMARKS
SPRINGFIELD    LGT RAIN  73  67  81 W8        30.03S
JOPLIN         CLOUDY    72  69  90 W6        30.03S

$$
MOZ032>034-039>042-045>050-055>058-069>072-211000-
...CENTRAL MISSOURI...

CITY           SKY/WX    TMP DP  RH WIND       PRES   REMARKS
COLUMBIA       CLEAR     70  67  90 NW15      30.00R
JEFFERSON CITY PTCLDY    72  69  90 NW8       29.97R
ROLLA          CLOUDY    71  67  87 W7        29.97S
SEDALIA        CLEAR     70  64  81 N12       30.03R
OSAGE BEACH    CLOUDY    72  66  83 W5        29.99S

$$
MOZ051-052-059>065-211000-
...EAST CENTRAL MISSOURI...

CITY           SKY/WX    TMP DP  RH WIND       PRES   REMARKS
ST LOUIS INTL  PTCLDY    73  69  87 W10       29.92R
SPIRIT OF STL  PTCLDY    70  68  93 W6        29.91R
ST CHARLES     PTCLDY    70  68  93 W7        29.91R FOG

$$
MOZ072>076-082>087-097>100-106>115-211000-
...SOUTH CENTRAL AND SOUTHEAST MISSOURI...

CITY           SKY/WX    TMP DP  RH WIND       PRES   REMARKS
CAPE GIRARDEAU CLEAR     65  63  93 CALM      29.94S
FARMINGTON     PTCLDY    72  66  83 W5        29.96F
POPLAR BLUFF   CLEAR     68  64  87 W3        29.95S
WEST PLAINS    PTCLDY    69  66  90 SW5       30.02F

$$


USA.gov is the U.S. government's official web portal to all federal, state and local government web resources and services.